Location: Johnson City
(36.3130°N, 82.3540°W)
Time: 08:58:04
(UTC-05:00)

Hubble Space Telescope - Visible Passes

Search period start: 20 February 2018 00:00
Search period end: 02 March 2018 00:00
Orbit: 537 x 541 km, 28.5° (Epoch: 19 February)

Date Brightness Start Highest point End Pass type
(mag) Time Alt. Az. Time Alt. Az. Time Alt. Az.
20 Feb 2.9 05:41:50 14° SSW 05:43:48 19° SSE 05:46:46 10° ESE visible
21 Feb 2.6 05:32:15 19° SSW 05:33:26 21° SSE 05:36:37 10° ESE visible
22 Feb 2.4 05:22:37 23° S 05:23:05 23° S 05:26:25 10° ESE visible
23 Feb 2.4 05:12:56 25° SSE 05:12:56 25° SSE 05:16:09 10° ESE visible
24 Feb 2.5 05:03:15 24° SSE 05:03:15 24° SSE 05:05:53 10° ESE visible
24 Feb 2.5 06:39:48 10° WSW 06:43:08 24° S 06:46:27 10° SE visible
25 Feb 2.8 04:53:32 22° SE 04:53:32 22° SE 04:55:34 10° ESE visible
25 Feb 2.5 06:29:35 10° WSW 06:32:46 21° SSW 06:35:57 10° SE visible
26 Feb 3.1 04:43:51 18° SE 04:43:51 18° SE 04:45:13 10° ESE visible
26 Feb 2.6 06:19:25 10° WSW 06:22:24 19° SSW 06:25:22 10° SSE visible
27 Feb 3.5 04:34:10 14° SE 04:34:10 14° SE 04:34:51 10° SE visible
27 Feb 2.8 06:09:32 11° SW 06:12:02 17° SSW 06:14:43 10° SSE visible
28 Feb 2.9 05:59:54 12° SW 06:01:38 14° SSW 06:03:55 10° SSE visible
01 Mar 3.0 05:50:18 11° SW 05:51:15 12° SSW 05:52:51 10° S visible
